Powrót do katalogu

ION SCV-007

AktywnyŁącznośćSSO
NORAD 55060·PAYLOAD·🇮🇹 Italy

Wystrzelony Jan 3, 2023 z Cape Canaveral Space Force Station

Loading…

Następne Przeloty (najbliższe 24 godziny)

TLE

ŚwieżeSource: Space-Track

Epoka: Sep 14, 2026, 10:50 UTC

1 55060U 23001BD  26257.45166019  .00000295  00000-0  48274-4 0  9991
2 55060  97.8916 318.6559 0013396  51.6872 308.5541 14.77618397199431

Śledź ION SCV-007 w czasie rzeczywistym z AllMySat

Download on the App Store